User: anonymous   Login
Location: Scultetus-Sternwarte G�rlitz
(51.1356°N, 14.9514°E)
Time: 19:49:20
(UTC+02:00)
Language:

Iridium 3 - Orbit

View from above orbital plane
View from above orbital plane
View from above satellite
View from above satellite

Ground track
Ground track

The orbit data is extracted from the following two-line orbital elements,

1 25431U 98048A   16120.41068475  .00000215  00000-0  69822-4 0  9998
2 25431  86.3969  68.6858 0002094  84.4701  31.0147 14.34223611926301
Epoch (UTC): 29 April 2016 09:51:23
Eccentricity: 0.0002094
inclination: 86.3969°
perigee height: 776 km
apogee height: 779 km
right ascension of ascending node: 68.6858°
argument of perigee: 84.4701°
revolutions per day: 14.34223611
mean anomaly at epoch: 31.0147°
orbit number at epoch: 92630

The dashed part of the orbit path shows where the satellite is in the earth's shadow,  

DLR